This is the latest recevied weather packets stored in our database for station/object KB2KRJ. If no packets are shown the sender has not sent any weather packets the latest 10 day(s).
| Time | Temp. | Humidity | Pressure | Rain* | Wind** | Luminosity | Snow |
|---|---|---|---|---|---|---|---|
| 1777244441 | 16.11° C | 39% | 1019.9 hPa | 0 mm | - | - | - |
| 1777239032 | 17.22° C | 38% | 1019.7 hPa | 0 mm | - | - | - |
| 1777237232 | 17.22° C | 37% | 1019.5 hPa | 0 mm | - | - | - |
| 1777227322 | 16.67° C | 45% | 1020.2 hPa | 0 mm | - | - | - |
| 1777226423 | 17.22° C | 45% | 1020.3 hPa | 0 mm | - | - | - |
| 1777223711 | 16.11° C | 43% | 1020.6 hPa | 0 mm | - | - | - |
| 1777216555 | 12.22° C | 68% | 1021.4 hPa | 0 mm | - | - | - |
| 1777215654 | 12.78° C | 67% | 1021.3 hPa | 0 mm | - | - | - |
| 1777211136 | 10.56° C | 18% | 1021.5 hPa | 0 mm | - | - | - |
| 1777205723 | 7.78° C | 21% | 1021.5 hPa | 0 mm | - | - | - |
| 1777203917 | - | - | 1021.1 hPa | 0 mm | - | - | - |
| 1777200395 | - | - | 1020.6 hPa | 0 mm | - | - | - |
| 1777190440 | 6.67° C | 26% | 1019.2 hPa | 0.51 mm | - | - | - |
| 1777184134 | 6.67° C | 27% | 1019.5 hPa | 1.52 mm | - | - | - |
| 1777178727 | 6.67° C | 29% | 1019.8 hPa | 1.52 mm | - | - | - |
| 1777174223 | 6.67° C | 31% | 1019.9 hPa | 1.02 mm | - | - | - |
| 1777168819 | 6.67° C | 33% | 1019.8 hPa | 1.27 mm | - | - | - |
| 1777167916 | 6.67° C | 34% | 1019.8 hPa | 1.27 mm | - | - | - |
| 1777166114 | 6.67° C | 35% | 1019.4 hPa | 1.02 mm | - | - | - |
| 1777157154 | 7.22° C | 45% | 1017.4 hPa | 0.76 mm | - | - | - |
| 1777155352 | 7.22° C | 49% | 1017.1 hPa | 0.51 mm | - | - | - |
| 1777152651 | 7.22° C | 55% | 1017 hPa | 0.25 mm | - | - | - |
| 1777150850 | 7.22° C | 58% | 1016.9 hPa | 0.25 mm | - | - | - |
| 1777147252 | 7.78° C | 69% | 1017 hPa | 0 mm | - | - | - |
| 1777145448 | 8.33° C | 67% | 1017 hPa | 0 mm | - | - | - |
* Rain latest hour (hover to see other rain measurements)
** Current wind speed in m/s (hover to see current wind gust speed)